Orbital Elements at Epoch 2459200.5 (2020-Dec-17.0) TDB
Reference: JPL 15 (heliocentric ecliptic J2000)
Element | Value | Uncertainty (1-sigma) | Units |
e | .05726761270562512 | 5.264e-08 | |
a | 3.18533197713015 | 3.8838e-08 | au |
q | 3.002915619125017 | 1.6283e-07 | au |
i | 25.74384100812897 | 7.1724e-06 | deg |
node | 45.65768691609204 | 1.4664e-05 | deg |
peri | 203.3467523241597 | 7.49e-05 | deg |
M | 118.964904183482 | 7.6657e-05 | deg |
tp | 2458514.306124652725 (2019-Jan-30.80612465) | 0.00043839 | TDB |
period | 2076.493036501084 5.69 | 3.7977e-05 1.04e-07 | d yr |
n | .1733692305593302 | 3.1707e-09 | deg/d |
Q | 3.367748335135282 | 4.1062e-08 | au |
|
| | Orbit Determination Parameters
Additional Information
|